Date,TemperatureHighF,TemperatureAvgF,TemperatureLowF,DewpointHighF,DewpointAvgF,DewpointLowF,HumidityHigh,HumidityAvg,HumidityLow,PressureMaxIn,PressureMinIn,WindSpeedMaxMPH,WindSpeedAvgMPH,GustSpeedMaxMPH,PrecipitationSumIn
2013-1-1,57.4,50.7,43.7,46.4,43.8,40.3,88,77,65,30.17,30.09,14,4,15,0.00
2013-1-2,59.4,48.8,42.1,49.0,43.5,39.6,92,83,53,30.34,30.17,8,0,10,0.02
2013-1-3,58.3,50.1,43.7,49.3,44.1,32.4,93,81,52,30.44,30.34,9,1,11,0.00
2013-1-4,59.9,50.6,43.0,39.2,35.4,31.0,74,57,34,31.91,30.08,11,1,11,0.00
2013-1-5,57.2,51.1,44.6,36.9,34.2,31.0,69,53,40,30.08,29.80,19,2,19,0.00
2013-1-6,50.2,44.5,40.3,38.7,35.7,30.6,85,72,57,29.93,29.73,31,6,31,0.06
2013-1-7,52.5,44.0,37.6,30.8,26.8,19.3,67,51,35,30.03,23.96,57,4,57,0.00
2013-1-8,41.5,35.4,32.0,31.2,26.8,18.7,88,71,40,30.22,30.02,21,5,21,0.04
2013-1-9,46.0,38.2,34.3,30.5,26.2,21.4,78,62,47,30.26,30.18,25,3,25,0.00
2013-1-10,52.3,42.8,34.2,37.1,29.9,23.0,77,62,38,30.20,30.06,12,0,12,0.00
2013-1-11,61.0,54.2,45.3,51.5,46.0,37.1,91,74,57,30.06,29.85,16,2,16,0.10
2013-1-12,60.1,52.2,45.1,46.6,42.5,38.3,88,70,54,30.07,29.84,17,2,17,0.00
2013-1-13,56.7,47.1,41.4,44.3,40.0,37.3,89,77,58,32.20,30.06,8,0,8,0.00
2013-1-14,57.2,49.3,43.2,48.6,44.4,39.3,89,84,72,30.32,30.25,11,0,11,0.00
2013-1-15,59.4,52.4,45.1,51.5,47.1,42.7,92,83,65,30.29,30.05,15,2,15,0.02
2013-1-16,59.4,54.6,49.5,51.9,47.0,36.7,89,76,51,30.05,29.67,28,9,28,0.83
2013-1-17,58.5,54.4,47.8,50.2,44.4,38.3,80,69,57,29.82,29.69,19,5,21,0.00
2013-1-18,56.7,52.4,45.5,50.7,45.0,36.7,88,76,58,29.69,29.48,23,8,23,0.45
2013-1-19,55.0,49.8,45.1,39.8,37.7,35.7,76,64,51,29.89,29.54,22,6,22,0.00
2013-1-20,64.9,54.7,46.0,53.6,45.4,36.6,88,71,55,29.97,29.86,13,2,13,0.00
2013-1-21,63.5,56.2,49.3,53.6,49.6,45.0,92,80,55,29.95,29.69,13,2,14,0.00
2013-1-22,63.5,57.5,53.2,50.9,45.2,40.2,86,64,47,29.83,29.69,18,4,19,0.00
2013-1-23,59.7,54.6,50.0,45.4,41.2,37.6,74,61,46,29.98,29.82,18,2,18,0.00
2013-1-24,62.2,53.7,45.1,52.7,46.8,41.0,90,78,59,29.98,29.60,24,6,24,0.33
2013-1-25,57.4,50.4,43.3,48.6,43.5,38.4,89,78,61,29.68,29.54,26,4,26,0.53
2013-1-26,53.6,48.6,45.3,48.8,44.2,40.8,91,85,76,29.68,29.47,15,2,15,0.63
2013-1-27,52.5,46.9,45.1,42.4,40.1,38.5,86,77,65,29.96,29.68,22,4,22,0.00
2013-1-28,55.4,48.4,42.8,42.8,39.5,36.7,87,72,56,30.02,29.91,14,1,14,0.00
2013-1-29,48.2,45.6,42.3,40.5,38.7,34.9,85,77,66,30.11,30.01,14,1,14,0.00
2013-1-30,57.9,48.1,41.7,38.7,35.0,29.8,79,62,35,30.10,29.97,14,2,14,0.00
2013-1-31,60.8,51.1,42.3,43.8,37.6,29.4,75,60,44,30.05,29.86,23,4,23,0.00
2013-2-1,60.4,51.7,42.8,42.1,33.2,25.4,70,51,27,30.09,29.91,26,2,26,0.00
2013-2-2,64.8,57.0,50.7,52.0,46.5,41.6,86,69,49,29.91,29.80,17,4,17,0.00
2013-2-3,63.7,59.0,55.2,54.0,51.6,49.5,88,77,63,29.96,26.89,28,10,28,3.02
2013-2-4,64.9,58.3,52.7,55.9,52.1,48.9,91,81,59,30.02,29.94,11,1,11,0.00
2013-2-5,62.2,55.8,49.6,53.4,48.5,43.7,93,77,56,30.02,29.87,14,2,14,0.00
2013-2-6,63.3,53.9,45.1,51.1,46.0,41.1,91,76,52,29.87,29.70,16,2,16,0.00
2013-2-7,59.4,54.7,50.0,49.9,46.1,40.4,86,73,56,29.74,29.55,28,9,31,0.26
2013-2-8,56.3,51.8,46.8,45.3,40.0,35.3,79,64,55,29.77,29.55,17,3,17,0.04
2013-2-9,60.3,50.8,41.5,41.5,38.4,35.5,84,64,42,29.89,29.76,16,2,16,0.00
2013-2-10,58.6,51.3,45.3,40.1,37.4,34.1,75,60,43,29.90,29.81,16,2,16,0.00
2013-2-11,55.4,48.2,43.9,38.2,34.0,29.4,77,59,41,30.06,29.78,21,4,21,0.00
2013-2-12,59.2,49.5,40.1,46.7,39.8,32.1,80,70,41,30.09,30.03,15,1,15,0.00
2013-2-13,54.7,50.0,44.8,47.9,45.0,39.7,92,83,68,30.03,29.91,19,2,19,0.61
2013-2-14,52.7,48.0,45.7,45.6,43.8,40.4,90,86,65,29.94,25.92,13,2,13,0.47
2013-2-15,51.3,46.9,42.1,44.8,42.0,38.5,90,83,71,30.05,29.69,13,2,13,0.20
2013-2-16,53.8,48.0,41.2,45.3,42.6,38.1,91,82,70,30.09,30.03,12,1,12,0.12
2013-2-17,46.6,45.3,42.8,43.8,40.0,35.6,90,82,70,30.08,29.97,21,2,21,0.45
2013-2-18,52.0,45.8,39.9,39.6,37.4,33.9,82,73,57,30.11,30.06,14,2,14,0.00
2013-2-19,55.9,48.1,41.5,48.6,42.4,36.6,92,81,66,30.07,29.80,20,2,21,0.27
2013-2-20,57.9,49.0,41.9,41.3,37.6,34.4,83,66,43,30.08,29.84,13,1,13,0.00
2013-2-21,53.6,48.7,42.8,48.4,43.3,38.2,90,82,73,30.07,29.76,9,0,9,0.02
2013-2-22,55.4,51.0,46.9,52.4,48.1,44.7,94,90,82,29.76,29.60,20,2,20,2.12
2013-2-23,64.8,53.4,46.4,52.5,46.9,44.5,94,80,50,30.06,27.23,13,1,13,0.02
2013-2-24,66.2,54.8,47.8,57.9,49.6,45.0,95,84,50,30.12,30.06,13,1,15,7.61
2013-2-25,64.9,57.5,50.7,57.1,52.0,47.0,94,83,65,30.12,30.01,12,1,13,0.00
2013-2-26,65.5,58.1,50.2,53.6,46.8,36.9,89,68,39,30.05,29.99,13,2,13,0.00
2013-2-27,58.3,52.1,47.1,43.3,38.6,33.5,77,61,40,30.07,29.96,17,2,17,0.00
2013-2-28,51.1,47.5,44.6,40.5,38.8,36.6,78,72,64,30.22,30.07,14,2,14,0.00
2013-3-1,55.9,47.6,40.1,39.6,37.0,32.9,81,68,49,32.35,30.04,13,1,13,0.00
2013-3-2,57.7,49.5,41.2,45.5,41.6,37.3,88,75,54,30.53,28.72,14,1,14,7.61
2013-3-3,54.0,50.1,45.9,47.4,42.3,36.1,90,75,60,31.28,29.79,28,10,28,0.30
2013-3-4,57.4,49.1,42.4,43.7,39.0,34.0,85,69,49,30.19,29.98,12,1,12,7.61
2013-3-5,53.8,47.9,41.7,40.9,37.2,32.1,88,67,52,30.42,30.19,17,4,18,0.00
2013-3-6,57.4,48.4,38.7,41.1,35.5,31.0,78,62,39,30.41,30.16,10,1,11,0.00
2013-3-7,55.4,51.0,47.8,50.6,46.4,41.0,90,84,75,30.17,27.27,10,0,11,0.22
2013-3-8,64.0,54.6,48.7,53.5,49.1,46.5,93,83,53,29.95,26.33,11,0,12,0.02
2013-3-9,69.3,59.0,50.2,53.9,49.7,46.8,91,73,52,29.88,29.75,15,2,15,0.00
2013-3-10,71.6,60.6,54.5,50.4,47.7,44.8,82,64,41,29.84,29.75,14,2,14,7.61
2013-3-11,71.2,61.1,51.1,56.9,49.8,43.7,91,69,48,29.75,29.60,17,2,17,7.61
2013-3-12,69.3,60.9,55.0,45.5,42.3,39.0,65,51,35,32.61,24.37,23,4,23,0.00
2013-3-13,66.4,58.2,48.7,54.1,45.9,40.5,88,65,41,29.77,29.72,19,3,19,0.00
2013-3-14,66.9,60.9,55.9,54.2,48.6,34.5,88,65,42,29.74,29.34,23,6,29,0.00
2013-3-15,60.3,55.1,48.9,43.3,39.2,36.1,64,55,46,29.63,29.41,25,6,25,7.61
2013-3-16,56.8,49.0,42.4,39.0,36.0,32.5,73,61,41,30.01,29.61,17,2,17,0.00
2013-3-17,53.2,46.2,40.6,36.5,34.1,31.6,78,64,45,30.19,30.00,15,1,17,0.00
2013-3-18,55.9,47.7,39.7,46.7,40.8,34.1,90,78,54,30.20,29.98,10,1,10,0.00
2013-3-19,62.6,56.2,49.5,52.9,49.6,45.8,90,79,66,29.98,29.80,20,4,20,0.00
2013-3-20,68.2,58.7,49.5,54.7,50.0,45.7,89,74,53,29.94,29.84,11,1,11,0.00
2013-3-21,64.4,59.2,53.8,56.3,53.3,40.8,92,81,54,29.84,29.56,18,2,18,0.00
2013-3-22,63.3,56.4,51.3,40.8,35.9,26.5,66,47,34,32.71,29.54,27,9,27,0.00
2013-3-23,67.1,54.9,46.0,38.3,25.8,15.9,66,35,18,29.99,29.77,14,2,14,0.00
2013-3-24,64.4,54.8,44.2,50.6,45.0,36.9,82,70,55,30.03,29.96,16,2,16,0.00
2013-3-25,63.5,57.9,52.3,54.0,50.9,45.6,88,78,66,29.97,29.63,18,3,18,0.00
2013-3-26,67.6,59.3,51.8,53.3,47.0,42.5,89,65,48,29.66,29.55,21,5,21,0.00
2013-3-27,69.1,60.4,54.7,50.4,45.7,40.3,70,59,45,29.86,29.65,18,4,18,0.00
2013-3-28,63.3,57.3,53.2,53.2,48.8,43.8,88,74,61,30.08,29.86,9,1,9,0.10
2013-3-29,69.1,57.6,51.4,54.5,51.2,48.2,92,80,54,30.08,30.01,9,0,11,0.00
2013-3-30,73.4,62.2,53.6,54.6,50.9,47.1,85,68,41,30.01,29.85,16,1,16,0.00
2013-3-31,68.2,62.1,57.7,55.8,52.3,47.0,80,70,61,29.88,29.76,16,3,16,0.00
2013-4-1,71.2,63.0,55.4,53.9,42.9,34.0,87,51,27,29.90,29.78,20,4,20,0.00
2013-4-2,70.3,61.6,53.4,53.7,47.5,41.5,80,61,40,29.89,26.28,15,2,15,0.00
2013-4-3,69.1,61.7,57.9,55.3,47.0,38.0,88,61,34,29.67,26.37,20,6,20,0.02
2013-4-4,70.3,61.7,54.9,44.7,42.0,37.5,66,50,31,31.49,28.05,18,5,18,0.00
2013-4-5,68.7,61.3,51.8,50.4,44.6,36.4,70,55,32,29.97,25.70,23,5,23,0.00
2013-4-6,74.5,62.5,52.5,56.3,50.0,41.3,83,66,35,29.83,29.76,9,0,9,0.00
2013-4-7,67.6,62.2,59.4,58.0,52.7,41.2,84,72,46,29.76,29.34,20,3,20,0.00
2013-4-8,60.6,56.7,51.8,50.3,47.4,44.2,87,72,56,29.91,28.82,18,3,18,0.00
2013-4-9,67.1,57.2,47.8,50.1,46.4,41.8,88,70,42,30.00,29.90,17,2,17,0.00
2013-4-10,72.3,61.5,51.8,48.6,44.9,40.8,82,57,34,30.01,29.91,14,2,18,0.00
2013-4-11,73.4,62.0,54.1,49.2,45.6,40.8,75,57,35,31.67,26.39,11,2,11,0.00
2013-4-12,73.6,63.0,51.8,51.3,47.0,41.0,78,58,39,30.09,30.00,11,1,11,0.00
2013-4-13,79.9,66.6,55.6,48.9,45.5,40.0,67,49,26,30.11,30.05,12,1,15,0.00
2013-4-14,78.4,65.7,57.7,53.4,47.0,43.4,65,52,33,30.15,30.08,21,3,21,0.00
2013-4-15,62.6,57.3,52.9,46.5,43.0,35.8,76,59,39,30.12,30.03,23,7,23,0.00
2013-4-16,62.2,55.5,49.8,45.9,42.4,36.9,84,63,41,30.09,27.03,25,8,25,0.06
2013-4-17,64.8,58.4,53.8,40.9,33.3,23.9,60,40,23,30.12,30.04,27,8,27,0.00
2013-4-18,62.2,57.0,52.9,39.6,31.6,24.8,58,39,25,30.11,29.98,24,8,24,0.00
2013-4-19,61.2,54.5,49.3,46.2,37.6,33.5,71,53,43,32.88,25.20,19,4,19,0.00
2013-4-20,63.0,55.8,50.2,44.7,39.6,35.7,70,55,41,30.05,29.95,18,3,18,0.00
2013-4-21,70.2,61.0,51.8,44.6,38.9,35.9,61,45,30,30.05,29.97,20,3,20,0.00
2013-4-22,69.4,61.7,52.7,45.5,41.8,37.0,64,49,34,30.10,30.00,13,1,13,0.00
2013-4-23,68.9,61.0,52.0,48.4,44.8,39.1,69,56,45,30.24,30.10,12,1,12,0.00
2013-4-24,74.3,63.3,51.8,48.9,44.7,37.7,76,53,29,30.34,30.23,13,1,13,0.00
2013-4-25,78.8,68.7,56.5,49.7,44.9,40.2,57,43,33,30.31,30.20,12,1,12,0.00
2013-4-26,82.4,70.6,58.1,47.2,41.6,37.6,51,36,23,30.20,30.05,17,1,17,0.00
2013-4-27,83.5,71.0,58.5,50.2,43.6,40.4,54,39,24,30.05,29.96,12,1,12,0.00
2013-4-28,82.9,68.4,56.5,52.4,43.8,36.5,64,43,23,30.10,29.99,13,1,14,8.34
2013-4-29,84.2,70.6,57.4,50.6,43.5,32.9,53,39,19,30.16,30.09,14,1,15,0.00
2013-4-30,86.2,73.9,58.8,50.4,44.4,37.5,53,36,23,30.15,30.09,16,2,16,0.00
2013-5-1,85.3,77.7,69.8,50.6,45.2,37.6,39,32,22,30.10,27.66,29,4,29,0.00
2013-5-2,85.5,77.8,69.6,48.9,43.3,38.3,43,30,21,30.01,29.95,21,5,21,0.00
2013-5-3,86.0,75.3,68.5,56.0,50.5,42.8,60,43,28,29.96,29.88,17,3,17,0.00
2013-5-4,84.7,74.2,63.5,57.5,52.9,48.6,71,49,31,29.99,29.88,11,1,13,0.00
2013-5-5,85.5,75.3,65.1,56.8,52.9,48.8,61,47,34,30.09,29.97,13,1,13,0.00
2013-5-6,85.1,76.1,67.1,56.5,53.0,47.0,61,46,29,30.12,26.43,18,3,18,0.00
2013-5-7,84.2,73.6,65.3,55.8,51.2,45.1,68,47,31,30.04,25.20,18,2,18,0.00
2013-5-8,72.7,66.1,61.0,60.1,55.7,49.7,83,70,53,29.95,29.86,13,1,13,0.00
2013-5-9,71.6,64.5,59.9,57.9,54.6,52.2,83,71,58,29.93,29.86,23,2,23,0.00
2013-5-10,70.3,63.7,59.7,57.3,54.7,52.6,83,73,59,29.94,29.85,16,2,16,0.08
2013-5-11,79.0,67.4,56.3,55.8,53.0,50.0,83,62,42,29.92,29.79,13,1,13,0.00
2013-5-12,77.2,70.6,65.5,56.6,54.2,50.8,69,57,44,29.80,29.69,13,2,13,0.00
2013-5-13,74.3,64.6,58.5,59.4,52.6,48.6,86,66,42,29.73,29.68,14,2,15,0.22
2013-5-14,70.7,62.6,57.9,55.0,52.0,49.3,85,69,51,31.30,29.71,21,6,21,0.02
2013-5-15,78.4,67.1,56.5,57.3,51.6,47.9,81,60,38,29.92,29.87,15,1,15,0.00
2013-5-16,78.4,66.7,57.9,62.7,53.7,47.8,83,65,38,29.96,29.88,14,1,14,0.00
2013-5-17,80.2,69.7,61.7,60.9,55.3,50.6,80,61,39,29.97,29.87,14,1,14,0.00
2013-5-18,85.5,74.6,62.6,63.1,58.6,50.8,79,59,34,30.03,29.94,11,0,11,0.00
2013-5-19,89.8,78.7,68.9,62.1,57.1,52.4,66,49,31,30.02,29.93,12,1,12,0.00
2013-5-20,89.4,78.3,68.5,61.3,58.0,55.8,66,51,34,29.97,29.91,11,1,11,0.00
2013-5-21,89.2,79.2,70.3,57.9,54.6,49.9,59,44,27,29.97,29.90,13,1,13,0.00
2013-5-22,86.9,76.2,66.0,60.0,53.4,42.2,66,47,24,29.94,29.49,18,1,18,0.00
2013-5-23,83.3,76.3,68.0,61.3,51.2,3.2,68,43,22,29.78,25.24,25,8,25,0.00
2013-5-24,77.5,73.3,64.6,53.0,50.0,46.5,57,44,38,31.66,26.01,40,3,40,8.67
2013-5-25,80.8,73.0,63.0,50.4,48.0,44.9,57,42,30,29.96,29.91,19,3,20,0.00
2013-5-26,84.2,78.6,68.9,50.5,46.7,40.9,50,33,24,29.96,27.51,18,4,18,0.00
2013-5-27,78.8,70.4,62.6,52.2,42.5,35.8,50,37,26,30.00,29.93,12,2,12,0.00
2013-5-28,77.9,68.5,59.2,57.1,51.3,43.7,68,55,39,29.99,29.82,10,0,10,0.00
2013-5-29,83.8,74.7,67.8,60.1,53.7,41.6,69,49,36,29.82,29.63,10,1,11,0.00
2013-5-30,88.7,76.7,68.7,60.7,51.6,42.1,74,44,21,29.76,29.69,19,2,19,0.00
2013-5-31,82.2,73.3,66.2,55.3,47.8,39.4,64,42,28,30.97,27.69,17,4,17,0.00
2013-6-1,77.2,67.6,61.5,58.6,46.6,38.2,83,49,27,29.89,29.81,17,2,17,0.02
2013-6-2,77.2,68.6,60.8,56.6,50.6,43.2,81,55,34,29.86,29.69,17,3,17,0.02
2013-6-3,80.6,70.5,62.6,53.6,49.5,44.0,63,49,28,29.91,29.86,14,2,15,0.00
2013-6-4,84.2,74.1,65.8,55.2,50.6,41.6,64,45,23,29.93,29.84,18,2,18,0.00
2013-6-5,83.1,73.5,64.9,57.2,50.0,39.7,70,45,22,29.98,29.91,16,2,16,0.00
2013-6-6,79.7,71.7,62.6,61.4,57.2,53.4,83,62,42,30.05,29.97,12,1,12,0.00
2013-6-7,80.4,72.6,66.7,62.6,55.4,47.4,81,57,32,30.04,29.89,7,0,7,0.00
2013-6-8,80.6,72.3,65.8,62.4,57.2,52.8,81,61,42,29.91,29.85,15,1,15,0.00
2013-6-9,81.7,73.3,62.2,60.4,56.9,53.8,80,58,42,29.98,23.99,57,0,57,0.00
2013-6-10,87.1,77.3,65.8,60.2,56.1,53.0,69,49,34,29.99,29.86,12,1,12,0.00
2013-6-11,87.4,75.1,68.7,61.9,56.7,52.7,78,55,31,29.87,29.66,21,2,21,0.00
2013-6-12,82.4,72.3,59.2,61.7,52.5,47.9,85,51,36,29.81,29.68,32,1,32,0.41
2013-6-13,75.0,67.9,63.3,60.7,57.2,55.3,83,69,55,29.88,29.77,17,3,17,0.08
2013-6-14,77.4,70.2,64.0,61.5,58.4,5.4,82,67,52,29.96,29.85,64,4,64,0.00
2013-6-15,83.5,74.7,65.7,62.0,58.6,55.5,73,58,44,29.98,29.92,10,1,10,0.00
2013-6-16,89.8,78.5,66.7,66.8,59.4,55.5,76,54,35,30.00,29.94,15,0,15,0.00
2013-6-17,90.3,81.1,70.5,64.7,59.0,52.1,73,49,34,30.02,29.97,17,1,17,0.00
2013-6-18,88.9,82.7,75.7,60.3,57.5,53.2,53,43,33,30.02,29.95,21,5,21,0.00
2013-6-19,87.8,82.3,76.3,58.3,54.6,50.0,45,39,29,29.97,26.93,25,6,25,0.00
2013-6-20,90.9,83.4,78.1,58.6,53.4,49.6,48,36,28,29.99,29.89,67,7,67,0.00
2013-6-21,86.5,80.1,75.4,58.0,54.0,47.1,49,41,29,29.99,29.92,23,6,23,0.00
2013-6-22,91.6,82.0,71.6,55.2,47.1,29.5,49,32,13,29.96,29.88,21,3,21,0.00
2013-6-23,93.7,84.4,73.6,60.7,53.8,42.7,54,36,26,29.90,29.81,18,2,18,0.00
2013-6-24,95.7,83.7,72.0,61.0,57.5,51.9,61,43,25,29.84,29.78,11,1,11,0.00
2013-6-25,94.1,84.3,76.1,63.1,58.6,53.9,55,43,31,29.82,29.77,11,1,11,0.00
2013-6-26,88.3,80.1,76.1,68.3,61.0,53.0,62,53,42,29.91,29.81,13,1,13,9.15
2013-6-27,85.5,77.5,72.3,65.6,61.9,58.7,76,59,44,29.94,29.88,15,2,15,0.00
2013-6-28,82.8,75.9,69.4,65.1,63.3,59.2,82,66,52,29.94,29.90,12,1,12,0.00
2013-6-29,88.3,82.7,75.0,61.5,56.7,46.4,55,41,36,29.90,29.77,10,2,10,0.00
2013-6-30,79.5,73.9,70.0,58.1,51.8,46.2,62,46,36,30.01,29.76,14,2,14,9.15
2013-7-1,85.5,75.2,67.1,57.5,52.7,47.0,66,47,28,30.15,30.01,22,2,22,0.00
2013-7-2,85.3,76.4,67.1,60.0,56.2,51.2,72,51,33,30.16,30.09,10,1,10,0.00
2013-7-3,83.5,76.5,67.5,56.8,53.5,50.5,62,46,36,30.11,27.05,16,1,16,0.00
2013-7-4,84.7,77.2,68.0,56.4,51.8,46.9,52,42,34,30.07,30.01,18,3,18,0.00
2013-7-5,84.4,78.3,72.5,60.4,54.3,46.9,50,44,37,30.05,29.99,19,4,19,0.00
2013-7-6,83.8,78.0,73.0,62.8,58.5,54.3,67,52,38,30.04,29.98,22,5,22,0.00
2013-7-7,86.2,79.8,74.7,62.4,60.0,55.4,63,51,40,30.06,29.90,21,3,21,9.15
2013-7-8,89.1,82.2,76.3,57.9,55.2,50.6,50,40,32,29.99,29.94,22,4,22,0.00
2013-7-9,90.0,83.5,77.9,61.1,56.7,50.3,50,40,33,29.98,29.84,19,4,21,0.00
2013-7-10,89.1,81.0,75.2,62.0,58.3,51.0,60,47,35,29.86,29.74,19,4,19,0.00
2013-7-11,90.0,80.8,73.6,63.1,56.7,51.1,62,44,34,29.84,29.76,16,2,16,0.00
2013-7-12,90.1,81.5,71.8,62.0,58.3,52.6,65,46,33,29.91,29.83,13,1,13,0.00
2013-7-13,87.8,80.6,74.8,63.1,59.9,54.6,64,50,39,29.92,29.87,16,3,16,0.00
2013-7-14,89.6,80.6,74.5,61.9,57.4,53.8,56,45,32,29.92,29.85,16,2,16,0.00
2013-7-15,86.9,79.2,73.0,57.9,54.6,52.1,56,43,33,29.91,29.85,17,3,17,0.00
2013-7-16,86.9,79.8,71.8,57.7,54.1,50.6,52,41,34,29.93,29.87,17,3,17,0.00
2013-7-17,80.1,75.5,71.1,60.9,57.3,51.3,68,54,41,29.99,29.92,21,6,21,0.00
2013-7-18,83.3,77.3,72.7,58.7,53.8,48.1,59,45,32,30.01,26.39,25,7,25,0.00
2013-7-19,84.7,78.4,73.6,55.2,50.7,46.6,49,39,30,30.00,29.91,27,4,27,0.00
2013-7-20,87.8,79.7,72.3,58.1,52.5,45.6,55,40,29,29.91,29.81,14,4,14,0.00
2013-7-21,90.5,82.7,74.3,58.0,53.5,49.2,46,37,29,29.89,29.82,16,3,16,0.00
2013-7-22,83.8,77.5,72.9,63.0,57.3,49.4,68,51,35,29.91,29.84,14,4,14,0.00
2013-7-23,85.1,77.8,70.9,60.0,52.2,43.5,61,43,28,29.89,29.84,16,4,16,0.00
2013-7-24,91.4,82.7,75.0,52.2,48.4,44.9,39,31,21,29.91,29.86,14,4,14,0.00
2013-7-25,93.7,83.3,73.0,60.5,53.0,47.4,53,36,25,29.94,29.87,10,1,12,0.00
2013-7-26,93.6,84.6,75.2,59.2,53.2,47.7,52,35,25,29.90,29.84,13,1,13,0.00
2013-7-27,90.5,83.8,76.1,57.7,53.4,48.1,45,35,29,29.93,29.84,12,2,12,0.00
2013-7-28,90.0,83.3,76.1,58.3,54.7,48.7,51,38,31,30.00,29.92,12,2,12,0.00
2013-7-29,91.6,85.0,79.0,56.8,52.5,48.0,45,33,24,30.00,29.92,13,4,13,0.00
2013-7-30,97.0,87.8,77.9,64.7,57.1,51.5,52,36,27,32.73,24.19,10,1,10,0.00
2013-7-31,94.1,85.9,78.4,65.1,60.4,55.5,54,43,34,29.81,29.73,11,2,12,0.00
2013-8-1,86.0,81.8,78.1,65.5,60.0,54.9,63,48,37,29.93,29.80,14,4,14,0.00
2013-8-2,86.5,81.5,76.5,61.1,56.8,51.5,58,44,33,29.96,23.70,14,6,14,0.00
2013-8-3,88.7,82.7,77.2,58.8,55.3,50.2,50,39,32,29.95,23.97,17,4,17,0.00
2013-8-4,92.7,85.8,79.0,58.8,54.7,49.0,44,35,23,29.95,29.89,11,3,11,0.00
2013-8-5,85.5,80.7,76.3,59.7,53.4,49.2,47,39,30,29.98,29.91,12,4,12,0.00
2013-8-6,85.5,80.2,75.6,55.3,52.1,47.5,47,38,28,29.93,29.86,13,5,14,0.00
2013-8-7,87.1,81.7,77.5,53.8,51.6,46.5,41,36,26,29.94,29.86,10,4,10,0.00
2013-8-8,91.4,83.1,78.1,55.3,51.2,44.3,42,34,20,29.96,29.89,11,4,11,0.00
2013-8-9,90.7,83.8,77.2,59.4,54.1,48.8,49,37,25,29.94,29.81,10,4,10,0.00
2013-8-10,90.9,82.0,76.1,67.1,59.6,52.7,69,48,28,29.81,29.66,12,2,12,0.00
2013-8-11,87.8,81.5,77.0,64.7,56.0,46.5,66,43,25,29.85,29.68,11,4,11,0.00
2013-8-12,88.0,82.3,76.3,61.0,53.1,47.9,52,37,27,29.93,29.84,11,5,11,0.00
2013-8-13,90.1,83.9,78.4,56.9,51.8,46.5,42,34,25,29.92,29.86,12,4,12,0.00
2013-8-14,91.4,84.8,79.7,54.3,51.4,44.5,41,32,22,29.86,29.82,12,4,12,0.00
2013-8-15,91.9,84.9,80.1,58.7,53.7,45.6,44,35,22,29.88,29.81,12,4,12,0.00
2013-8-16,85.3,80.9,76.1,64.5,61.8,55.7,63,53,42,29.90,29.83,12,3,12,0.00
2013-8-17,86.7,80.1,75.4,64.1,62.1,59.3,67,55,44,29.92,29.84,13,4,13,0.00
2013-8-18,87.8,81.7,76.6,59.8,52.6,46.8,51,37,29,29.99,29.90,13,4,13,0.00
2013-8-19,89.6,82.7,76.5,59.3,53.6,47.2,45,37,29,29.95,29.87,13,5,13,0.00
2013-8-20,90.9,83.6,78.8,60.5,53.8,45.2,43,36,26,29.90,29.84,13,3,13,0.00
2013-8-21,84.7,80.2,77.0,60.5,56.2,47.9,55,44,35,29.90,29.84,12,4,12,0.00
2013-8-22,83.1,77.5,73.4,62.9,58.8,56.3,61,53,45,29.87,29.82,13,4,13,0.00
2013-8-23,85.8,79.8,74.5,61.5,54.4,46.4,60,43,30,29.94,29.84,12,4,12,0.00
2013-8-24,89.2,80.5,71.6,55.0,50.8,44.9,47,36,27,29.94,29.87,10,1,10,0.00
2013-8-25,91.6,81.7,72.1,60.3,53.8,48.5,54,40,24,29.89,29.83,8,1,8,0.00
2013-8-26,93.4,79.5,72.3,59.9,55.8,52.0,57,45,27,29.90,29.83,7,0,8,0.00
2013-8-27,97.7,84.4,74.3,62.1,58.3,54.8,58,43,26,29.90,29.83,8,1,8,0.00
2013-8-28,98.8,87.9,77.5,66.0,58.2,51.6,57,38,25,29.87,29.80,9,1,10,0.00
2013-8-29,93.7,83.4,74.8,66.8,61.0,56.3,71,49,30,29.91,24.51,11,1,11,0.00
2013-8-30,88.9,80.6,73.4,68.1,62.0,54.7,76,54,36,29.94,24.22,11,2,12,0.00
2013-8-31,84.4,76.9,71.6,65.4,57.3,50.0,81,52,35,29.99,29.90,10,2,10,0.00
2013-9-1,82.6,76.6,70.5,60.6,51.9,42.5,70,43,31,30.06,29.98,10,1,10,0.00
2013-9-2,85.5,75.7,66.7,60.1,49.7,39.4,64,42,25,30.08,29.99,12,1,12,0.00
2013-9-3,86.9,76.7,67.8,64.1,59.6,56.1,73,57,38,30.08,29.97,7,1,10,0.00
2013-9-4,79.7,74.8,67.3,61.8,56.9,52.8,67,54,45,30.54,29.99,11,2,11,0.00
2013-9-5,82.2,73.1,64.6,55.3,49.1,45.3,62,44,30,30.11,29.98,8,1,8,0.00
2013-9-6,84.7,74.4,64.8,61.1,55.4,48.8,69,53,35,29.98,29.89,9,1,9,0.00
2013-9-7,81.7,74.4,69.1,64.3,59.3,54.6,73,60,42,30.02,29.93,8,0,8,0.00
2013-9-8,84.2,74.9,64.9,60.5,55.0,45.9,76,52,35,30.12,30.01,11,1,11,0.00
2013-9-9,81.3,74.6,69.1,58.5,50.7,45.5,65,44,34,30.15,30.09,12,3,12,0.00
2013-9-10,88.2,76.7,67.1,60.9,52.9,45.4,64,45,26,30.10,30.01,7,0,8,0.00
2013-9-11,93.7,80.6,68.0,64.6,59.9,55.9,69,51,31,31.43,29.94,8,1,8,0.00
2013-9-12,92.7,81.8,71.6,65.9,61.3,55.6,64,51,35,29.97,29.91,7,1,7,0.00
2013-9-13,91.8,81.8,74.1,63.0,60.9,57.5,66,50,34,29.95,29.89,9,2,9,0.00
2013-9-14,84.2,76.0,67.6,60.2,55.4,46.8,65,50,28,30.02,29.92,11,1,11,0.00
2013-9-15,85.3,73.8,66.0,58.5,51.2,36.0,72,49,19,30.01,29.89,10,1,10,0.00
2013-9-16,81.5,74.2,66.7,64.7,57.6,50.8,74,57,41,29.90,29.64,11,2,11,0.00
2013-9-17,84.2,74.6,65.3,59.7,57.2,52.3,75,56,34,29.72,29.64,10,2,11,0.00
2013-9-18,84.7,75.7,71.1,61.1,56.8,48.8,65,53,31,30.57,29.61,11,4,11,0.00
2013-9-19,84.9,76.1,65.7,60.7,55.4,51.1,68,50,33,29.75,29.66,7,1,8,0.00
2013-9-20,84.4,74.1,67.6,61.3,58.7,55.0,73,59,39,29.95,29.73,9,1,9,0.00
2013-9-21,77.5,70.6,66.2,62.6,57.7,54.6,83,64,51,30.04,24.93,10,1,10,0.00
2013-9-22,74.8,67.5,63.5,56.4,52.6,2.1,70,59,44,30.08,30.03,12,2,12,0.00
2013-9-23,75.9,68.1,61.9,53.2,48.9,42.3,68,51,32,30.05,29.93,12,2,12,0.00
2013-9-24,81.1,69.8,61.2,57.2,52.0,46.9,68,55,32,29.96,29.89,9,1,9,0.00
2013-9-25,86.0,72.5,62.6,61.8,56.6,49.4,78,60,30,30.02,29.95,8,0,8,0.00
2013-9-26,85.5,74.4,65.7,66.2,59.2,49.1,88,62,30,30.02,29.87,11,1,11,0.00
2013-9-27,85.1,74.6,67.8,61.7,57.5,50.6,78,57,33,29.93,29.85,8,1,8,0.00
2013-9-28,84.9,73.3,62.2,64.5,58.8,55.1,83,62,39,29.94,29.89,10,1,10,0.00
2013-9-29,85.6,74.3,65.5,66.0,58.8,52.4,84,60,39,29.94,29.86,9,1,9,0.00
2013-9-30,85.3,73.8,64.6,68.4,62.6,8.7,86,69,42,29.89,29.66,11,1,11,0.00
2013-10-1,78.8,70.3,64.9,68.9,63.4,53.6,92,80,47,29.67,24.00,24,4,24,0.39
2013-10-2,72.9,66.2,59.4,57.9,54.9,51.5,80,67,52,29.95,29.61,11,2,11,0.02
2013-10-3,60.8,57.8,55.9,52.9,48.7,43.6,84,72,62,30.25,25.92,11,2,11,0.10
2013-10-4,58.3,55.1,53.4,45.0,42.9,40.8,71,63,56,30.34,30.23,11,2,12,0.00
2013-10-5,61.2,54.9,51.6,43.4,41.9,39.7,72,62,49,30.34,29.48,11,2,11,0.00
2013-10-6,63.9,56.3,50.7,45.8,43.6,41.3,73,63,48,30.33,30.24,11,1,11,0.00
2013-10-7,68.4,58.6,48.7,47.6,44.7,40.8,78,62,38,30.33,30.28,12,1,12,0.00
2013-10-8,74.8,62.1,55.4,53.8,48.4,43.9,73,62,35,30.33,30.26,10,1,10,0.00
2013-10-9,73.6,63.2,52.5,54.9,50.4,46.7,82,65,42,30.28,30.15,7,0,7,0.00
2013-10-10,70.9,64.0,58.1,61.0,56.6,52.8,89,77,60,30.16,30.05,11,1,11,0.00
2013-10-11,85.3,71.1,60.8,65.3,58.6,54.0,85,67,36,30.21,26.26,8,0,8,0.00
2013-10-12,82.9,70.9,62.2,69.8,63.0,59.1,91,78,53,30.21,30.16,6,0,6,0.00
2013-10-13,81.3,70.1,62.2,63.4,59.9,52.4,93,73,40,31.26,30.07,8,1,10,9.70
2013-10-14,79.3,68.7,61.5,59.4,55.0,48.2,86,64,35,30.15,30.10,9,1,9,0.00
2013-10-15,81.5,68.6,59.4,62.5,57.5,53.0,84,69,47,30.15,29.96,7,0,7,0.00
2013-10-16,72.1,68.8,63.7,63.0,58.9,53.2,82,71,53,29.96,29.58,12,2,12,0.19
2013-10-17,70.0,64.5,56.8,62.8,50.0,39.0,82,61,38,29.75,29.50,14,3,14,0.08
2013-10-18,75.4,64.4,59.4,52.3,47.9,44.0,77,56,37,30.03,27.16,11,2,11,0.00
2013-10-19,73.9,65.5,58.6,52.6,45.4,39.5,78,50,30,30.34,29.71,13,2,13,0.00
2013-10-20,70.0,62.2,55.9,51.5,46.4,41.9,76,58,38,30.41,30.33,12,1,12,0.00
2013-10-21,72.3,61.1,49.6,52.5,46.8,40.6,78,61,35,30.33,23.90,7,0,7,0.00
2013-10-22,75.9,61.0,52.5,57.3,52.4,48.7,88,75,40,30.20,30.10,8,0,8,0.00
2013-10-23,77.5,65.9,53.2,54.0,50.3,45.4,88,60,42,30.20,30.12,12,2,12,0.00
2013-10-24,74.3,68.1,60.1,50.8,46.8,41.2,63,47,37,30.20,30.14,14,4,16,0.00
2013-10-25,73.6,63.4,56.3,54.0,47.9,40.2,78,58,38,30.17,27.68,12,2,13,0.00
2013-10-26,74.3,60.1,48.2,53.5,44.6,38.2,76,59,31,30.20,30.15,11,1,11,0.00
2013-10-27,73.9,59.0,49.6,56.6,46.5,35.8,88,65,40,30.17,30.10,9,0,9,0.00
2013-10-28,74.5,62.1,50.9,58.4,51.7,46.5,89,71,44,30.13,30.07,6,0,6,0.00
2013-10-29,78.8,63.6,51.8,57.4,51.1,45.5,84,66,32,30.08,30.00,6,0,6,0.00
2013-10-30,76.3,63.4,53.6,60.0,53.3,48.0,87,71,46,30.08,30.02,8,0,8,0.00
2013-10-31,77.0,66.7,56.7,53.1,48.0,42.7,74,52,39,30.17,30.07,10,1,11,0.00
2013-11-1,69.8,62.9,57.2,51.8,49.2,45.2,76,62,48,30.20,30.14,13,2,13,0.00
2013-11-2,71.1,60.1,52.0,54.7,50.4,45.7,85,72,49,30.17,30.10,7,0,7,0.00
2013-11-3,76.6,62.8,53.6,62.2,54.1,48.8,91,75,39,31.80,30.04,7,0,7,0.00
2013-11-4,77.0,65.3,57.2,60.6,55.9,50.5,90,74,42,30.07,29.95,8,0,8,0.00
2013-11-5,73.4,66.4,58.5,61.2,57.0,49.5,88,73,45,29.95,29.75,11,3,11,0.00
2013-11-6,67.5,60.6,58.1,58.9,56.2,52.6,93,86,70,29.75,29.60,21,1,21,1.10
2013-11-7,67.5,62.2,56.3,58.2,47.9,30.5,93,63,29,30.12,29.69,16,4,16,0.00
2013-11-8,72.0,61.1,54.0,51.8,48.1,38.7,82,63,45,30.17,30.10,7,0,7,0.00
2013-11-9,73.4,59.9,50.9,56.6,51.2,44.4,89,74,51,30.13,30.02,7,0,7,0.00
2013-11-10,73.9,60.8,51.8,62.4,54.8,49.2,93,82,55,30.02,29.88,6,0,6,0.00
2013-11-11,69.3,63.4,57.2,63.6,59.0,54.5,93,86,75,29.97,29.84,14,1,14,0.17
2013-11-12,68.9,63.7,60.6,63.0,60.4,57.9,94,89,78,30.07,25.85,10,1,10,0.00
2013-11-13,68.2,61.3,57.4,57.9,54.9,53.2,91,80,62,30.07,29.96,10,1,10,0.04
2013-11-14,60.8,58.2,55.9,54.9,53.1,51.2,92,83,75,29.96,29.86,13,2,13,0.78
2013-11-15,62.8,57.9,55.6,52.7,50.6,49.0,83,77,67,30.10,29.88,13,4,15,0.00
2013-11-16,58.6,56.8,55.0,50.6,48.0,43.4,78,73,65,30.17,30.08,14,2,14,0.00
2013-11-17,60.4,54.8,52.5,46.7,43.2,41.2,75,65,53,30.17,30.10,14,5,14,0.00
2013-11-18,61.2,55.0,50.4,46.3,43.6,41.4,78,66,52,30.13,30.07,11,2,11,0.00
2013-11-19,64.2,55.9,49.3,51.4,46.8,42.0,83,72,55,30.13,25.30,6,0,6,0.00
2013-11-20,67.3,60.7,56.1,61.8,56.5,51.0,94,86,65,30.03,29.86,9,1,9,0.51
2013-11-21,69.1,61.6,55.0,58.8,53.8,49.6,90,76,56,29.89,29.75,10,2,13,0.35
2013-11-22,67.1,57.8,52.3,56.4,50.5,47.5,92,78,54,29.81,29.69,8,0,8,0.04
2013-11-23,66.4,58.6,50.5,59.8,51.3,46.3,91,78,57,29.81,29.73,13,2,13,0.04
2013-11-24,63.7,58.5,55.2,58.5,52.1,47.5,89,80,64,29.79,29.66,15,2,20,0.81
2013-11-25,65.5,58.0,51.1,50.3,47.1,43.2,84,68,47,29.73,29.69,8,0,8,0.00
2013-11-26,65.3,56.5,50.9,51.8,47.8,45.0,86,73,49,29.78,29.68,9,0,9,0.00
2013-11-27,61.7,54.2,46.6,48.6,40.6,31.8,86,62,35,30.20,29.77,10,2,11,0.00
2013-11-28,56.7,49.8,42.1,41.1,37.6,32.8,80,64,42,30.30,30.20,12,1,12,0.00
2013-11-29,62.2,49.5,40.5,44.3,39.0,33.8,83,69,42,30.22,30.09,7,0,7,0.00
2013-11-30,54.5,52.0,49.1,49.0,45.0,39.3,86,77,65,30.15,30.05,3,0,3,0.08
2013-12-1,61.7,57.4,51.3,58.1,53.8,47.2,92,88,82,30.08,29.97,10,1,10,0.19
2013-12-2,63.7,58.3,55.2,58.8,55.0,50.5,93,89,81,30.10,24.64,8,0,8,0.39
2013-12-3,56.7,49.2,42.4,51.3,41.8,35.2,100,76,66,30.22,30.09,18,3,19,14.48
2013-12-4,45.9,42.0,32.0,38.6,36.9,32.0,100,82,66,30.18,30.05,22,6,22,0.20
2013-12-5,60.3,47.1,38.3,37.5,33.8,28.8,79,61,35,30.09,30.03,60,0,60,0.00
2013-12-6,60.8,50.1,37.0,45.4,34.6,27.9,70,57,32,30.07,29.84,10,1,10,0.02
2013-12-7,58.5,51.1,45.3,48.3,38.9,24.6,82,64,44,30.22,29.85,14,4,14,0.00
2013-12-8,51.4,45.3,40.3,28.4,25.0,22.3,57,45,34,30.40,30.22,12,2,12,0.00
2013-12-9,57.4,48.2,37.4,40.6,29.1,20.9,66,50,25,30.40,30.19,10,1,10,0.00
2013-12-10,59.0,49.8,42.4,42.6,37.2,30.7,86,64,39,30.37,30.12,19,2,19,0.08
2013-12-11,43.9,40.3,38.3,31.0,23.6,19.9,64,51,40,30.53,30.37,20,4,20,0.02
2013-12-12,49.1,42.8,34.9,36.2,28.5,20.5,71,58,34,30.44,30.25,15,1,15,0.00
2013-12-13,48.4,44.5,39.7,41.6,38.4,35.4,87,79,70,30.25,30.15,11,0,11,0.00
2013-12-14,57.2,46.0,37.9,47.9,38.1,34.6,89,75,52,30.37,30.20,3,0,3,0.02
2013-12-15,70.3,50.9,43.5,52.7,45.2,39.9,91,82,45,30.38,30.31,6,0,6,0.00
2013-12-16,55.9,50.2,47.1,47.4,43.3,36.5,91,78,62,30.41,30.30,18,3,18,0.00
2013-12-17,50.0,47.0,43.9,38.5,36.5,32.8,76,67,56,30.43,30.34,24,5,24,0.00
2013-12-18,48.7,45.5,43.3,39.9,37.7,34.1,80,74,65,30.34,24.83,19,6,19,0.00
2013-12-19,50.4,45.9,39.2,40.6,37.9,34.0,85,74,58,30.30,30.22,17,3,17,0.00
2013-12-20,56.8,44.6,36.3,42.0,36.8,32.4,86,75,52,30.47,30.29,5,0,5,0.02
2013-12-21,59.4,46.5,38.7,47.6,39.6,34.9,89,78,50,30.53,30.45,6,0,6,0.00
2013-12-22,63.3,47.0,35.8,40.3,35.5,29.5,85,68,29,30.52,27.35,8,0,8,0.00
2013-12-23,58.1,47.0,37.9,43.4,39.2,31.9,85,75,54,30.40,30.30,8,0,8,0.00
2013-12-24,52.2,48.7,43.7,46.4,43.3,39.5,86,82,73,30.33,30.20,9,0,9,0.02
2013-12-25,59.9,53.2,48.4,53.8,48.4,44.7,89,84,66,30.23,30.08,9,1,10,0.12
2013-12-26,59.4,54.1,48.4,54.1,50.6,45.9,92,88,78,30.08,29.88,12,0,12,0.10
2013-12-27,57.2,54.2,50.4,53.9,51.1,48.4,93,89,82,29.89,29.80,13,1,13,1.00
2013-12-28,55.8,52.6,50.0,50.1,48.1,42.0,95,85,65,29.94,29.82,21,3,21,0.10
2013-12-29,59.4,53.7,46.8,45.6,42.7,38.1,78,67,51,30.09,29.91,20,4,20,0.00
2013-12-30,61.9,52.7,43.9,44.5,40.3,36.8,80,64,40,30.14,30.07,15,2,15,0.00
2013-12-31,51.4,48.0,45.5,42.8,40.0,38.5,78,74,67,30.19,30.11,21,2,21,0.00
2014-1-1,49.3,45.7,43.3,45.5,40.3,37.8,89,81,77,30.18,30.08,6,0,12,0.28
2014-1-2,55.9,49.8,44.6,47.9,43.0,39.9,85,78,65,30.13,30.06,14,1,14,0.10